Location: Malvern Link
(52.1333°N, 2.3000°W)
Time: 17:59:23
(UTC+00:00)

DIWATA 2B (PO-101) - Pass Details

Date: 28 June 2022
Orbit: 583 x 599 km, 98.0° (Epoch: 19 August)

Event Time Altitude Azimuth Distance (km) Brightness Sun altitude
Exits shadow 01:13:04 - 141° (SE) 2,200 ? -13.4°
Reaches altitude 10° 01:13:44 10° 138° (SE) 1,938 ? -13.4°
Maximum altitude 01:17:42 42° 68° (ENE) 859 ? -13.2°
Drops below altitude 10° 01:21:43 10° 357° (N) 1,955 ? -13.1°
Sets 01:23:58 0° 351° (N) 2,862 ? -13.0°
